Location: Lac de la Montagne noire
(46.1952°N, 74.2701°W)
Time: 12:53:15
(UTC-04:00)

Envisat - Pass Details

Date: 21 March 2019
Orbit: 764 x 766 km, 98.1° (Epoch: 19 October)

Event Time Altitude Azimuth Distance (km) Brightness Sun altitude
Rises 20:15:08 0° 190° (S) 3,215 6.2 -11.8°
Reaches altitude 10° 20:17:38 10° 200° (SSW) 2,294 5.6 -12.3°
Maximum altitude 20:22:11 33° 264° (W) 1,261 4.8 -13.0°
Drops below altitude 10° 20:26:47 10° 329° (NNW) 2,311 6.2 -13.8°
Sets 20:29:19 0° 339° (NNW) 3,242 6.8 -14.2°
